2022/05/30 23:41:10+0000,-32.42,-43.85,-32.88,-33.12,-49.95,-55.56
2022/05/30 23:42:02+0000,-32.55,-42.89,-32.28,-34.03,-49.72,-55.50
2022/05/30 23:42:54+0000,-32.40,-43.40,-32.91,-33.72,-49.97,-55.37
2022/05/30 23:43:46+0000,-32.80,-43.62,-32.57,-34.66,-49.61,-55.15
2022/05/30 23:44:38+0000,-33.21,-43.39,-32.09,-34.48,-50.15,-55.29
2022/05/30 23:45:30+0000,-32.02,-43.50,-32.59,-33.98,-49.73,-54.79
2022/05/30 23:46:23+0000,-32.25,-43.22,-32.36,-34.09,-49.97,-55.51
2022/05/30 23:47:15+0000,-33.27,-43.70,-33.39,-34.53,-50.00,-55.47
2022/05/30 23:48:07+0000,-32.25,-43.54,-32.71,-34.32,-50.85,-55.47
2022/05/30 23:48:59+0000,-32.92,-43.86,-32.98,-33.69,-50.44,-55.25
2022/05/30 23:49:51+0000,-33.56,-41.91,-32.65,-35.52,-49.33,-55.49
2022/05/30 23:50:43+0000,-32.07,-43.23,-32.45,-33.89,-50.21,-56.06
2022/05/30 23:51:43+0000,-32.42,-44.02,-32.44,-33.83,-49.98,-55.26
2022/05/30 23:52:35+0000,-32.62,-43.31,-32.07,-34.25,-49.95,-55.25
2022/05/30 23:53:27+0000,-32.10,-42.55,-32.32,-33.96,-50.07,-55.28
2022/05/30 23:54:20+0000,-32.86,-43.20,-31.94,-34.08,-49.73,-55.16
2022/05/30 23:55:12+0000,-32.94,-43.42,-32.96,-33.95,-50.28,-55.05
2022/05/30 23:56:04+0000,-32.71,-43.12,-32.55,-33.72,-50.23,-55.41
2022/05/30 23:56:56+0000,-33.09,-42.79,-32.37,-34.12,-50.12,-55.50
2022/05/30 23:57:48+0000,-32.45,-43.84,-32.52,-33.70,-49.91,-54.73
2022/05/30 23:58:40+0000,-32.55,-44.43,-32.80,-33.96,-49.97,-55.41
2022/05/30 23:59:32+0000,-31.49,-43.26,-32.70,-34.36,-49.98,-55.04
2022/05/31 00:00:24+0000,-32.42,-42.76,-32.13,-33.84,-50.56,-55.37
2022/05/31 00:01:39+0000,-31.56,-43.13,-32.04,-33.24,-49.92,-55.01
2022/05/31 00:02:31+0000,-33.55,-42.17,-32.52,-33.66,-50.21,-55.20
2022/05/31 00:03:23+0000,-33.86,-43.00,-32.51,-34.32,-50.27,-56.08
2022/05/31 00:04:15+0000,-33.05,-43.23,-32.39,-33.33,-50.16,-55.54
2022/05/31 00:05:07+0000,-32.75,-43.42,-32.56,-34.47,-50.58,-55.07
2022/05/31 00:05:59+0000,-32.53,-43.68,-32.54,-32.91,-50.08,-55.37
2022/05/31 00:06:51+0000,-32.78,-44.48,-32.29,-33.42,-50.53,-55.48
2022/05/31 00:07:43+0000,-32.78,-42.93,-32.39,-34.08,-50.33,-54.82
2022/05/31 00:08:35+0000,-32.77,-44.34,-32.75,-34.56,-50.30,-55.32
2022/05/31 00:09:27+0000,-33.18,-43.18,-32.42,-33.73,-50.69,-55.95
2022/05/31 00:10:19+0000,-32.79,-43.12,-32.80,-33.41,-49.81,-55.35
2022/05/31 00:11:19+0000,-33.47,-42.61,-32.84,-34.45,-50.45,-55.27
2022/05/31 00:12:11+0000,-32.67,-42.11,-32.87,-34.11,-49.82,-55.90
2022/05/31 00:13:03+0000,-32.90,-42.11,-33.10,-33.69,-50.74,-54.90
2022/05/31 00:13:55+0000,-33.01,-43.41,-32.31,-34.85,-49.95,-55.59
2022/05/31 00:14:47+0000,-32.53,-41.22,-33.00,-33.99,-49.89,-55.39
2022/05/31 00:15:39+0000,-33.39,-43.34,-32.79,-33.97,-50.26,-54.79
2022/05/31 00:16:32+0000,-32.32,-42.91,-32.07,-33.84,-49.60,-55.17
2022/05/31 00:17:24+0000,-33.10,-43.46,-32.40,-34.61,-49.84,-55.32
2022/05/31 00:18:16+0000,-32.77,-43.24,-32.42,-33.85,-50.35,-55.21
2022/05/31 00:19:08+0000,-33.15,-43.78,-32.25,-33.92,-50.60,-55.78
2022/05/31 00:20:00+0000,-32.70,-44.52,-32.22,-34.16,-49.45,-54.80
2022/05/31 00:21:00+0000,-32.31,-41.96,-32.56,-34.22,-49.48,-54.72
2022/05/31 00:21:52+0000,-32.53,-43.51,-32.64,-33.68,-49.97,-55.62
2022/05/31 00:22:44+0000,-33.37,-43.55,-32.45,-33.62,-49.98,-54.81
2022/05/31 00:23:36+0000,-32.98,-43.80,-32.56,-33.97,-50.02,-54.85
2022/05/31 00:24:28+0000,-32.36,-42.71,-32.64,-34.23,-49.97,-55.73
2022/05/31 00:25:20+0000,-32.12,-42.96,-32.26,-34.11,-49.49,-55.34
2022/05/31 00:26:12+0000,-33.14,-44.29,-32.74,-32.74,-49.73,-55.17
2022/05/31 00:27:04+0000,-32.73,-43.06,-32.83,-34.04,-49.52,-55.62
2022/05/31 00:27:56+0000,-32.92,-43.46,-32.44,-33.24,-49.82,-54.92
2022/05/31 00:28:49+0000,-32.43,-43.86,-32.39,-33.90,-50.68,-55.44
2022/05/31 00:29:41+0000,-32.91,-43.54,-32.40,-34.08,-50.79,-55.78
2022/05/31 00:30:33+0000,-33.76,-44.51,-32.36,-34.47,-49.89,-55.89
2022/05/31 00:31:33+0000,-33.77,-42.49,-32.27,-33.70,-49.79,-55.25
2022/05/31 00:32:25+0000,-33.40,-43.24,-31.80,-33.39,-49.67,-54.99
2022/05/31 00:33:17+0000,-32.46,-43.77,-31.95,-33.79,-49.85,-55.59
2022/05/31 00:34:09+0000,-33.58,-42.88,-32.74,-32.79,-50.04,-55.00
2022/05/31 00:35:01+0000,-32.80,-43.60,-32.53,-33.60,-49.43,-55.90
2022/05/31 00:35:53+0000,-32.67,-43.15,-32.25,-33.03,-49.34,-55.26
2022/05/31 00:36:46+0000,-33.02,-42.59,-32.34,-33.76,-49.47,-54.87
2022/05/31 00:37:38+0000,-32.38,-43.98,-31.79,-33.58,-49.51,-54.57
2022/05/31 00:38:30+0000,-33.10,-44.33,-31.86,-33.37,-49.84,-55.67
2022/05/31 00:39:22+0000,-32.53,-43.35,-32.68,-33.83,-49.98,-54.45
2022/05/31 00:40:14+0000,-32.98,-43.52,-31.72,-33.40,-50.00,-54.87
2022/05/31 00:41:14+0000,-32.00,-43.05,-32.09,-33.12,-50.25,-54.95
2022/05/31 00:42:06+0000,-31.18,-42.80,-31.87,-32.66,-49.90,-54.99
2022/05/31 00:42:58+0000,-32.56,-43.97,-31.78,-34.34,-49.90,-54.56
2022/05/31 00:43:50+0000,-32.66,-43.61,-31.92,-33.24,-50.10,-54.45
2022/05/31 00:44:42+0000,-31.96,-43.38,-31.90,-32.89,-50.36,-54.22
2022/05/31 00:45:34+0000,-32.29,-43.68,-32.12,-33.43,-50.22,-54.79
2022/05/31 00:46:26+0000,-32.06,-43.49,-32.00,-34.03,-50.21,-54.59
2022/05/31 00:47:18+0000,-32.81,-43.69,-32.62,-33.09,-50.61,-54.35
2022/05/31 00:48:10+0000,-33.08,-41.97,-32.66,-32.18,-50.84,-54.69
2022/05/31 00:49:02+0000,-32.16,-44.34,-32.06,-33.25,-49.97,-54.71
2022/05/31 00:49:55+0000,-32.44,-43.14,-32.75,-33.91,-50.11,-53.79
2022/05/31 00:50:47+0000,-32.60,-43.38,-31.84,-32.75,-50.42,-54.36
2022/05/31 00:51:47+0000,-32.57,-42.26,-31.91,-32.90,-49.89,-54.89
2022/05/31 00:52:39+0000,-33.29,-44.63,-31.84,-33.17,-50.44,-55.01
2022/05/31 00:53:31+0000,-32.32,-44.62,-31.96,-33.09,-49.77,-54.41
2022/05/31 00:54:23+0000,-32.91,-44.66,-32.48,-33.01,-49.49,-55.00
2022/05/31 00:55:15+0000,-32.78,-44.19,-31.85,-33.33,-50.06,-54.95
2022/05/31 00:56:07+0000,-32.33,-44.00,-32.62,-33.00,-50.06,-54.58
2022/05/31 00:56:59+0000,-33.36,-42.05,-33.31,-33.51,-50.03,-54.69
2022/05/31 00:57:51+0000,-32.45,-43.63,-32.34,-33.94,-49.98,-55.06
2022/05/31 00:58:43+0000,-32.64,-43.96,-32.37,-33.24,-50.31,-54.60
2022/05/31 00:59:35+0000,-32.39,-42.44,-32.05,-33.32,-50.10,-54.59
2022/05/31 01:00:27+0000,-32.68,-43.42,-32.15,-33.42,-50.38,-54.93
2022/05/31 01:01:26+0000,-32.94,-42.88,-31.58,-34.25,-49.70,-55.06
2022/05/31 01:02:18+0000,-32.65,-44.11,-31.99,-34.62,-50.08,-54.69
2022/05/31 01:03:10+0000,-32.91,-44.25,-32.11,-33.06,-50.42,-54.86
2022/05/31 01:04:02+0000,-33.31,-44.06,-32.76,-33.13,-49.85,-54.33
2022/05/31 01:04:54+0000,-33.65,-44.62,-31.96,-32.46,-49.88,-54.92
2022/05/31 01:05:47+0000,-32.87,-44.04,-31.92,-32.96,-50.00,-55.04
2022/05/31 01:06:39+0000,-31.94,-43.62,-31.97,-33.06,-50.08,-54.65
2022/05/31 01:07:31+0000,-32.29,-43.28,-31.80,-32.94,-50.36,-54.02
2022/05/31 01:08:23+0000,-33.05,-44.31,-32.12,-33.65,-50.29,-55.22
2022/05/31 01:09:15+0000,-32.51,-43.45,-31.64,-33.53,-50.35,-55.09
2022/05/31 01:10:07+0000,-32.84,-44.19,-31.43,-32.53,-50.55,-54.77
2022/05/31 01:11:05+0000,-32.97,-44.11,-31.96,-32.60,-50.52,-54.61
2022/05/31 01:11:57+0000,-32.52,-44.15,-32.07,-33.37,-50.44,-54.71
2022/05/31 01:12:49+0000,-32.66,-42.75,-32.02,-34.11,-49.96,-54.55
2022/05/31 01:13:41+0000,-32.12,-43.47,-32.34,-33.57,-50.32,-54.20
2022/05/31 01:14:33+0000,-33.48,-43.10,-32.73,-33.15,-50.10,-54.83
2022/05/31 01:15:25+0000,-32.48,-43.63,-32.30,-33.79,-50.04,-54.23
2022/05/31 01:16:17+0000,-32.77,-44.23,-31.98,-33.38,-49.88,-54.52
2022/05/31 01:17:09+0000,-32.57,-43.77,-32.18,-33.67,-50.02,-54.36
2022/05/31 01:18:01+0000,-32.44,-43.98,-32.00,-33.31,-50.17,-55.14
2022/05/31 01:18:54+0000,-33.26,-44.01,-32.26,-33.40,-50.98,-54.73
2022/05/31 01:19:46+0000,-32.80,-45.03,-31.88,-33.26,-49.94,-54.10
2022/05/31 01:20:38+0000,-32.80,-44.37,-32.10,-33.12,-48.85,-54.32
2022/05/31 01:21:36+0000,-31.95,-43.68,-32.13,-32.90,-49.70,-54.85
2022/05/31 01:22:28+0000,-32.90,-44.60,-31.69,-33.20,-49.75,-54.80
2022/05/31 01:23:20+0000,-32.61,-44.53,-31.77,-33.16,-50.25,-54.66
2022/05/31 01:24:12+0000,-32.30,-44.62,-31.42,-33.05,-50.04,-54.31
2022/05/31 01:25:04+0000,-33.30,-44.27,-31.80,-34.20,-49.58,-53.81
2022/05/31 01:25:56+0000,-32.50,-42.84,-32.79,-33.93,-50.10,-54.86
2022/05/31 01:26:48+0000,-33.21,-42.86,-31.60,-34.49,-49.86,-54.38
2022/05/31 01:27:40+0000,-32.30,-43.01,-32.53,-32.60,-49.39,-54.26
2022/05/31 01:28:32+0000,-32.98,-43.48,-32.43,-34.10,-49.87,-54.64
2022/05/31 01:29:24+0000,-33.28,-42.57,-32.35,-33.59,-49.50,-54.19
2022/05/31 01:30:16+0000,-32.96,-42.75,-31.51,-32.65,-49.01,-53.99
2022/05/31 01:31:17+0000,-32.78,-43.53,-31.68,-32.77,-49.58,-54.47
2022/05/31 01:32:09+0000,-33.02,-43.76,-31.95,-33.35,-49.81,-54.37
2022/05/31 01:33:01+0000,-32.71,-44.68,-31.89,-32.88,-49.26,-54.66
2022/05/31 01:33:53+0000,-32.17,-44.32,-31.53,-33.63,-49.44,-54.79
2022/05/31 01:34:45+0000,-32.37,-43.85,-31.92,-33.22,-49.25,-54.41
2022/05/31 01:35:37+0000,-32.47,-43.89,-31.79,-33.00,-49.27,-54.56
2022/05/31 01:36:29+0000,-32.34,-42.50,-32.03,-33.27,-49.21,-54.03
2022/05/31 01:37:21+0000,-32.76,-44.49,-31.80,-34.36,-48.68,-53.96
2022/05/31 01:38:13+0000,-32.16,-43.67,-31.77,-33.62,-48.70,-55.04
2022/05/31 01:39:05+0000,-31.81,-43.78,-31.99,-34.53,-49.88,-53.78
2022/05/31 01:39:57+0000,-33.65,-44.64,-31.77,-32.97,-49.15,-54.47
2022/05/31 01:40:49+0000,-32.08,-43.43,-32.01,-34.91,-50.03,-54.08
2022/05/31 01:41:50+0000,-32.09,-43.99,-32.43,-33.52,-49.20,-54.41
2022/05/31 01:42:42+0000,-33.53,-43.02,-31.78,-33.73,-49.83,-54.32
2022/05/31 01:43:34+0000,-33.17,-42.36,-31.54,-33.25,-49.36,-54.08
2022/05/31 01:44:26+0000,-32.88,-42.57,-31.89,-32.47,-49.25,-54.25
2022/05/31 01:45:18+0000,-32.45,-42.99,-31.71,-32.85,-48.76,-54.63
2022/05/31 01:46:10+0000,-32.91,-42.58,-31.65,-33.40,-49.39,-53.80
2022/05/31 01:47:02+0000,-32.36,-42.75,-31.99,-33.12,-50.30,-54.66
2022/05/31 01:47:54+0000,-32.80,-42.74,-32.34,-32.88,-49.08,-53.76
2022/05/31 01:48:46+0000,-32.07,-42.81,-31.93,-33.38,-50.01,-54.56
2022/05/31 01:49:38+0000,-32.74,-42.33,-32.23,-33.20,-49.37,-54.04
2022/05/31 01:50:30+0000,-32.51,-42.38,-31.82,-33.32,-49.37,-54.51
2022/05/31 01:51:30+0000,-32.76,-42.77,-31.93,-33.39,-49.66,-54.38
2022/05/31 01:52:22+0000,-33.05,-42.37,-32.01,-33.77,-50.47,-54.44
2022/05/31 01:53:14+0000,-33.51,-43.01,-31.94,-33.55,-49.59,-53.89
2022/05/31 01:54:06+0000,-33.09,-42.88,-31.81,-33.04,-48.95,-54.58
2022/05/31 01:54:58+0000,-32.91,-43.15,-31.93,-33.20,-49.52,-53.85
2022/05/31 01:55:50+0000,-33.20,-43.86,-31.86,-33.84,-49.14,-54.63
2022/05/31 01:56:43+0000,-32.50,-43.36,-32.63,-33.66,-49.90,-54.13
2022/05/31 01:57:35+0000,-33.18,-43.49,-31.70,-34.09,-49.90,-54.55
2022/05/31 01:58:27+0000,-33.13,-42.99,-31.59,-33.57,-49.81,-54.46
2022/05/31 01:59:19+0000,-32.95,-42.86,-31.89,-33.68,-49.62,-54.18
2022/05/31 02:00:11+0000,-33.15,-43.10,-31.94,-34.20,-50.10,-54.12
2022/05/31 02:01:16+0000,-33.18,-42.55,-31.46,-32.74,-49.42,-54.62
2022/05/31 02:02:08+0000,-33.13,-43.16,-32.11,-33.72,-49.50,-54.53
2022/05/31 02:03:00+0000,-33.01,-43.66,-31.98,-32.53,-50.06,-54.06
2022/05/31 02:03:52+0000,-32.66,-44.34,-31.79,-33.62,-50.21,-53.77
2022/05/31 02:04:44+0000,-32.58,-42.55,-32.07,-33.26,-49.50,-53.67
2022/05/31 02:05:36+0000,-32.01,-44.47,-31.54,-33.32,-50.03,-54.04
2022/05/31 02:06:28+0000,-32.49,-44.42,-31.72,-33.62,-49.43,-54.16
2022/05/31 02:07:20+0000,-33.36,-44.20,-32.07,-33.23,-48.57,-54.15
2022/05/31 02:08:12+0000,-33.26,-44.04,-31.61,-33.46,-49.22,-54.02
2022/05/31 02:09:04+0000,-32.74,-44.06,-31.93,-34.59,-49.71,-54.32
2022/05/31 02:09:56+0000,-32.09,-44.13,-32.41,-33.28,-49.80,-53.73
2022/05/31 02:10:48+0000,-32.77,-43.87,-32.45,-33.00,-49.63,-53.98
2022/05/31 02:11:47+0000,-32.98,-44.13,-31.64,-34.55,-49.48,-54.16
2022/05/31 02:12:39+0000,-33.01,-44.67,-32.24,-33.61,-49.96,-53.96
2022/05/31 02:13:31+0000,-33.29,-44.68,-32.22,-32.59,-49.71,-54.02
2022/05/31 02:14:23+0000,-32.67,-44.01,-32.07,-32.81,-49.13,-54.25
2022/05/31 02:15:15+0000,-32.95,-43.69,-32.18,-32.79,-49.57,-53.91
2022/05/31 02:16:07+0000,-33.44,-43.79,-32.30,-32.78,-49.08,-53.08
2022/05/31 02:16:59+0000,-33.16,-44.05,-32.08,-32.96,-48.88,-53.61
2022/05/31 02:17:51+0000,-31.97,-44.64,-32.18,-33.05,-48.75,-53.90
2022/05/31 02:18:43+0000,-32.88,-42.65,-32.37,-33.57,-49.77,-54.27
2022/05/31 02:19:35+0000,-33.46,-43.68,-32.26,-33.42,-48.90,-53.51
2022/05/31 02:20:27+0000,-33.18,-43.32,-31.81,-33.55,-49.46,-53.44
2022/05/31 02:21:25+0000,-33.27,-43.00,-32.22,-33.22,-49.64,-53.89
2022/05/31 02:22:17+0000,-32.80,-43.46,-32.04,-33.16,-49.32,-53.74
2022/05/31 02:23:09+0000,-32.51,-44.10,-32.12,-32.93,-49.53,-53.87
2022/05/31 02:24:01+0000,-32.29,-43.85,-31.63,-33.29,-49.67,-53.50
2022/05/31 02:24:54+0000,-32.61,-43.79,-31.95,-33.09,-49.19,-53.78
2022/05/31 02:25:46+0000,-32.43,-45.11,-31.73,-33.68,-48.77,-53.82
2022/05/31 02:26:38+0000,-32.74,-44.23,-31.97,-33.07,-49.18,-54.49
2022/05/31 02:27:30+0000,-31.78,-42.73,-32.24,-32.75,-49.63,-54.21
2022/05/31 02:28:22+0000,-32.84,-44.12,-32.24,-33.89,-48.89,-54.31
2022/05/31 02:29:14+0000,-32.10,-44.44,-31.68,-33.25,-49.78,-53.61
2022/05/31 02:30:06+0000,-32.33,-44.47,-31.38,-32.95,-49.59,-54.47
2022/05/31 02:31:04+0000,-32.55,-44.18,-31.75,-34.26,-48.80,-53.89
2022/05/31 02:31:56+0000,-32.22,-43.25,-32.22,-34.01,-48.51,-53.63
2022/05/31 02:32:48+0000,-31.70,-43.91,-31.52,-33.54,-49.10,-54.04
2022/05/31 02:33:40+0000,-32.21,-43.09,-32.20,-32.54,-48.86,-54.06
2022/05/31 02:34:32+0000,-32.81,-43.33,-31.85,-32.91,-49.28,-54.00
2022/05/31 02:35:25+0000,-31.69,-43.62,-32.31,-32.34,-49.12,-53.95
2022/05/31 02:36:17+0000,-32.34,-44.28,-31.79,-34.18,-48.74,-53.89
2022/05/31 02:37:09+0000,-32.68,-43.81,-32.22,-33.00,-49.17,-54.09
2022/05/31 02:38:01+0000,-32.31,-43.43,-32.14,-33.44,-49.63,-53.97
2022/05/31 02:38:53+0000,-32.84,-43.10,-31.34,-32.65,-49.29,-53.54
2022/05/31 02:39:45+0000,-32.41,-43.59,-31.42,-33.02,-49.34,-53.92
2022/05/31 02:40:37+0000,-32.63,-44.06,-32.55,-33.29,-48.87,-53.77
2022/05/31 02:41:35+0000,-32.34,-41.79,-31.59,-33.18,-49.22,-53.89
2022/05/31 02:42:27+0000,-31.68,-42.95,-32.29,-32.92,-49.16,-54.13
2022/05/31 02:43:19+0000,-31.92,-42.85,-32.01,-34.32,-49.78,-54.21
2022/05/31 02:44:11+0000,-32.27,-41.91,-31.84,-33.42,-49.49,-54.49
2022/05/31 02:45:03+0000,-32.48,-43.96,-31.95,-34.16,-48.66,-54.21
2022/05/31 02:45:55+0000,-32.72,-42.91,-32.53,-33.49,-49.56,-54.45
2022/05/31 02:46:47+0000,-32.74,-43.18,-32.06,-32.90,-49.01,-54.17
2022/05/31 02:47:39+0000,-31.59,-43.52,-32.30,-34.22,-49.30,-53.78
2022/05/31 02:48:32+0000,-31.87,-43.38,-32.07,-32.90,-49.32,-53.99
2022/05/31 02:49:24+0000,-32.35,-43.02,-31.88,-33.61,-49.58,-53.90
2022/05/31 02:50:16+0000,-31.84,-42.80,-31.90,-33.53,-49.26,-53.61
2022/05/31 02:51:14+0000,-32.66,-42.30,-32.51,-32.74,-49.82,-54.10
2022/05/31 02:52:06+0000,-32.53,-42.82,-31.67,-33.31,-49.72,-54.45
2022/05/31 02:52:58+0000,-32.34,-42.90,-32.16,-33.52,-49.45,-54.09
2022/05/31 02:53:50+0000,-31.98,-43.51,-32.10,-33.52,-49.62,-54.36
2022/05/31 02:54:42+0000,-31.17,-42.71,-31.76,-32.98,-49.50,-53.67
2022/05/31 02:55:34+0000,-32.59,-42.98,-31.39,-31.22,-49.79,-53.89
2022/05/31 02:56:26+0000,-32.21,-43.39,-31.57,-32.91,-49.31,-54.05
2022/05/31 02:57:18+0000,-31.93,-43.05,-32.19,-33.47,-49.61,-53.99
2022/05/31 02:58:11+0000,-32.29,-40.79,-31.64,-34.04,-49.55,-53.96
2022/05/31 02:59:03+0000,-32.52,-43.19,-31.87,-33.35,-48.97,-53.17
2022/05/31 02:59:55+0000,-32.08,-43.13,-31.94,-32.92,-49.17,-54.42
2022/05/31 03:00:47+0000,-31.82,-42.48,-32.29,-32.97,-49.52,-54.40
2022/05/31 03:01:47+0000,-31.92,-43.25,-31.90,-33.75,-49.83,-54.19
2022/05/31 03:02:39+0000,-32.77,-42.25,-31.87,-33.45,-49.60,-54.48
2022/05/31 03:03:31+0000,-32.11,-43.90,-32.63,-33.19,-49.53,-54.33
2022/05/31 03:04:23+0000,-32.40,-42.87,-32.35,-32.56,-49.15,-54.10
2022/05/31 03:05:15+0000,-32.00,-42.57,-32.01,-32.89,-49.85,-54.35
2022/05/31 03:06:07+0000,-31.87,-43.03,-31.90,-33.38,-49.59,-53.89
2022/05/31 03:06:59+0000,-32.22,-43.41,-32.27,-34.06,-49.51,-54.18
2022/05/31 03:07:51+0000,-31.47,-43.68,-32.23,-34.06,-49.17,-53.80
2022/05/31 03:08:43+0000,-32.05,-41.64,-32.20,-33.11,-44.59,-53.85
2022/05/31 03:09:35+0000,-31.65,-43.30,-31.98,-33.92,-49.61,-53.93
2022/05/31 03:10:27+0000,-32.29,-43.00,-32.80,-33.83,-49.48,-54.89
2022/05/31 03:11:26+0000,-33.06,-43.02,-32.74,-33.73,-49.25,-54.38
2022/05/31 03:12:18+0000,-32.31,-42.15,-31.69,-34.46,-49.29,-53.93
2022/05/31 03:13:10+0000,-31.81,-41.50,-31.65,-33.41,-48.96,-54.27
2022/05/31 03:14:02+0000,-31.78,-42.47,-31.80,-33.42,-49.58,-54.32
2022/05/31 03:14:54+0000,-31.92,-41.02,-31.73,-33.46,-49.36,-53.87
2022/05/31 03:15:46+0000,-32.04,-42.69,-31.91,-33.18,-49.35,-54.07
2022/05/31 03:16:38+0000,-32.71,-41.32,-32.27,-32.99,-49.11,-54.04
2022/05/31 03:17:30+0000,-31.50,-43.38,-31.39,-33.52,-49.28,-54.68
2022/05/31 03:18:22+0000,-32.47,-42.88,-32.16,-33.08,-49.30,-53.76
2022/05/31 03:19:14+0000,-31.38,-40.34,-31.96,-32.66,-49.62,-53.92
2022/05/31 03:20:06+0000,-31.80,-42.72,-31.64,-32.59,-49.15,-54.87
2022/05/31 03:21:04+0000,-31.78,-42.52,-31.72,-34.03,-49.14,-54.56
2022/05/31 03:21:56+0000,-32.41,-42.07,-32.10,-32.71,-48.68,-54.11
2022/05/31 03:22:49+0000,-32.09,-42.15,-31.60,-32.55,-49.16,-53.93
2022/05/31 03:23:41+0000,-32.53,-42.03,-31.44,-32.86,-49.37,-54.01
2022/05/31 03:24:33+0000,-31.78,-41.76,-31.80,-31.81,-49.71,-54.25
2022/05/31 03:25:25+0000,-32.42,-42.20,-31.72,-32.54,-49.76,-54.24
2022/05/31 03:26:17+0000,-32.49,-39.95,-31.54,-32.78,-49.36,-54.43
2022/05/31 03:27:09+0000,-31.73,-42.93,-31.85,-32.98,-49.06,-54.43
2022/05/31 03:28:01+0000,-32.73,-42.11,-32.09,-32.63,-48.81,-54.12
2022/05/31 03:28:53+0000,-30.70,-42.51,-32.24,-33.34,-49.36,-54.05
2022/05/31 03:29:45+0000,-31.93,-42.42,-32.35,-32.43,-49.54,-53.97
2022/05/31 03:30:37+0000,-31.02,-42.42,-31.62,-33.11,-48.47,-54.84
2022/05/31 03:31:35+0000,-32.07,-41.50,-31.17,-32.47,-49.07,-54.59
2022/05/31 03:32:27+0000,-31.73,-41.19,-32.17,-32.37,-48.82,-54.60
2022/05/31 03:33:19+0000,-32.01,-42.07,-32.04,-32.96,-49.59,-54.22
2022/05/31 03:34:11+0000,-32.61,-41.36,-31.80,-32.45,-49.03,-54.32
2022/05/31 03:35:03+0000,-31.23,-43.20,-32.21,-33.41,-48.94,-54.30
2022/05/31 03:35:56+0000,-31.52,-41.79,-32.09,-33.07,-49.46,-54.86
2022/05/31 03:36:48+0000,-31.27,-42.92,-31.81,-33.04,-49.37,-53.63
2022/05/31 03:37:40+0000,-32.46,-42.43,-31.80,-32.72,-49.25,-54.16
2022/05/31 03:38:32+0000,-32.36,-42.58,-31.84,-33.38,-47.70,-53.80
2022/05/31 03:39:24+0000,-32.31,-42.53,-31.95,-32.94,-49.42,-54.63
2022/05/31 03:40:16+0000,-32.02,-42.62,-32.23,-33.43,-49.29,-54.80
2022/05/31 03:41:14+0000,-31.80,-42.63,-32.35,-32.13,-49.88,-54.54
2022/05/31 03:42:06+0000,-30.96,-42.85,-32.00,-33.04,-48.71,-54.09
2022/05/31 03:42:58+0000,-32.12,-41.16,-32.36,-33.34,-48.38,-53.81
2022/05/31 03:43:50+0000,-31.44,-42.60,-32.26,-33.17,-49.42,-54.54
2022/05/31 03:44:42+0000,-32.06,-43.25,-31.67,-32.70,-49.84,-54.32
2022/05/31 03:45:34+0000,-31.58,-43.18,-32.01,-32.36,-49.52,-54.21
2022/05/31 03:46:26+0000,-32.19,-42.82,-31.94,-32.88,-49.72,-53.93
2022/05/31 03:47:18+0000,-30.87,-42.47,-32.13,-32.09,-49.60,-54.10
2022/05/31 03:48:10+0000,-31.80,-42.89,-32.37,-32.16,-49.72,-53.80
2022/05/31 03:49:02+0000,-32.15,-42.53,-31.72,-33.40,-50.02,-54.34
2022/05/31 03:49:55+0000,-32.30,-43.33,-31.91,-33.45,-48.89,-54.07
2022/05/31 03:50:47+0000,-32.33,-43.05,-32.42,-33.21,-49.17,-54.36
2022/05/31 03:51:50+0000,-32.19,-43.09,-32.42,-33.01,-49.33,-54.47
2022/05/31 03:52:43+0000,-32.01,-42.89,-32.87,-32.17,-49.51,-53.84
2022/05/31 03:53:35+0000,-32.14,-40.88,-32.20,-33.59,-49.99,-53.92
2022/05/31 03:54:27+0000,-32.70,-42.53,-32.73,-32.15,-49.76,-54.21
2022/05/31 03:55:19+0000,-32.45,-41.61,-32.70,-32.84,-49.01,-54.26
2022/05/31 03:56:11+0000,-32.48,-41.88,-31.57,-32.54,-49.91,-54.16
2022/05/31 03:57:03+0000,-32.55,-42.49,-32.25,-32.54,-49.36,-54.30
2022/05/31 03:57:55+0000,-32.15,-43.13,-32.33,-32.90,-48.50,-54.53
2022/05/31 03:58:47+0000,-31.60,-41.62,-32.40,-33.36,-49.49,-54.28
2022/05/31 03:59:39+0000,-31.91,-42.30,-32.23,-32.31,-49.84,-54.75
2022/05/31 04:00:31+0000,-32.39,-42.21,-32.08,-32.82,-49.72,-53.85
2022/05/31 04:01:32+0000,-32.53,-41.58,-32.17,-32.99,-49.55,-54.02
2022/05/31 04:02:24+0000,-31.83,-41.38,-32.14,-32.62,-50.51,-54.60
2022/05/31 04:03:16+0000,-32.21,-42.53,-32.63,-33.23,-48.99,-54.81
2022/05/31 04:04:09+0000,-31.88,-42.40,-32.54,-33.04,-49.61,-54.60
2022/05/31 04:05:01+0000,-31.60,-43.25,-31.88,-32.76,-49.26,-54.67
2022/05/31 04:05:53+0000,-30.48,-42.11,-32.08,-32.54,-48.14,-54.48
2022/05/31 04:06:45+0000,-32.26,-43.67,-31.89,-32.70,-49.93,-54.82
2022/05/31 04:07:37+0000,-32.51,-43.08,-32.21,-32.82,-49.95,-54.20
2022/05/31 04:08:29+0000,-32.27,-43.06,-32.73,-32.31,-49.52,-54.73
2022/05/31 04:09:21+0000,-32.27,-43.70,-31.61,-31.52,-48.44,-54.60
2022/05/31 04:10:13+0000,-31.90,-42.03,-32.35,-33.02,-49.25,-55.05
2022/05/31 04:11:11+0000,-31.51,-43.23,-32.37,-32.90,-50.45,-55.20
2022/05/31 04:12:03+0000,-31.30,-42.94,-31.95,-32.80,-50.00,-54.82
2022/05/31 04:12:55+0000,-31.94,-41.78,-32.31,-32.47,-49.26,-54.95
2022/05/31 04:13:47+0000,-32.24,-42.11,-32.34,-32.94,-50.27,-54.28
2022/05/31 04:14:40+0000,-31.94,-42.43,-32.29,-32.52,-50.14,-54.39
2022/05/31 04:15:32+0000,-33.27,-41.22,-32.56,-33.03,-50.62,-55.39
2022/05/31 04:16:24+0000,-32.40,-42.44,-31.76,-32.77,-49.33,-52.97
2022/05/31 04:17:16+0000,-32.88,-42.87,-31.65,-33.09,-49.92,-53.43
2022/05/31 04:18:08+0000,-31.54,-43.10,-32.67,-32.34,-49.99,-53.68
2022/05/31 04:19:00+0000,-31.86,-41.81,-32.30,-32.43,-50.17,-53.82
2022/05/31 04:19:52+0000,-31.38,-43.12,-32.09,-32.35,-49.63,-53.80
2022/05/31 04:20:44+0000,-32.16,-42.74,-32.12,-31.97,-50.15,-53.73
2022/05/31 04:21:44+0000,-31.98,-42.53,-32.27,-32.42,-50.15,-54.12
2022/05/31 04:22:36+0000,-32.06,-43.44,-31.91,-32.64,-50.58,-53.92
2022/05/31 04:23:28+0000,-32.41,-42.81,-32.08,-31.49,-49.40,-54.34
2022/05/31 04:24:20+0000,-31.48,-43.73,-32.21,-33.16,-49.00,-53.93
2022/05/31 04:25:12+0000,-31.47,-43.66,-32.53,-32.02,-49.28,-51.80
2022/05/31 04:26:04+0000,-31.61,-43.14,-32.79,-32.97,-49.03,-53.22
2022/05/31 04:26:56+0000,-31.48,-43.36,-31.88,-33.32,-49.32,-53.59
2022/05/31 04:27:48+0000,-31.29,-42.47,-32.04,-32.80,-49.17,-53.92
2022/05/31 04:28:40+0000,-31.58,-42.09,-31.47,-32.21,-49.69,-53.41
2022/05/31 04:29:32+0000,-31.89,-41.83,-32.24,-32.65,-49.25,-53.13
2022/05/31 04:30:24+0000,-31.97,-42.77,-32.23,-33.44,-49.56,-52.88
2022/05/31 04:31:26+0000,-32.12,-43.13,-31.92,-33.16,-48.84,-53.47
2022/05/31 04:32:18+0000,-31.18,-42.93,-31.71,-32.83,-49.18,-53.27
2022/05/31 04:33:10+0000,-31.77,-42.48,-32.02,-33.20,-49.58,-53.40
2022/05/31 04:34:02+0000,-31.63,-42.20,-32.29,-32.46,-48.98,-53.72
2022/05/31 04:34:54+0000,-31.26,-43.06,-32.33,-32.59,-49.31,-53.05
2022/05/31 04:35:46+0000,-31.42,-40.31,-31.55,-32.69,-49.42,-53.01
2022/05/31 04:36:38+0000,-31.38,-40.83,-32.26,-32.53,-49.12,-52.85
2022/05/31 04:37:30+0000,-31.19,-41.42,-31.52,-33.34,-49.41,-53.41
2022/05/31 04:38:22+0000,-29.37,-42.01,-31.93,-32.56,-49.70,-53.09
2022/05/31 04:39:14+0000,-29.99,-41.96,-32.32,-32.47,-49.62,-53.18
2022/05/31 04:40:06+0000,-30.09,-43.00,-32.75,-32.31,-49.42,-53.60
2022/05/31 04:41:06+0000,-30.21,-43.29,-32.26,-45.72,-53.29,-54.38
2022/05/31 04:41:58+0000,-29.70,-43.11,-32.02,-48.16,-53.11,-54.66
2022/05/31 04:42:51+0000,-30.20,-43.93,-32.35,-47.97,-53.09,-54.84
2022/05/31 04:43:43+0000,-30.20,-42.46,-32.10,-48.22,-52.81,-54.12
2022/05/31 04:44:35+0000,-30.49,-44.06,-32.73,-49.80,-52.59,-54.30
2022/05/31 04:45:27+0000,-30.81,-44.32,-32.00,-47.62,-53.16,-54.94
2022/05/31 04:46:19+0000,-30.74,-42.88,-32.76,-50.62,-53.60,-54.12
2022/05/31 04:47:11+0000,-30.45,-43.81,-32.36,-49.09,-54.07,-53.83
2022/05/31 04:48:03+0000,-29.32,-42.56,-32.20,-48.36,-53.95,-55.01
2022/05/31 04:48:55+0000,-31.10,-43.77,-33.00,-48.10,-53.54,-55.05
2022/05/31 04:49:47+0000,-30.83,-43.68,-32.66,-49.75,-53.39,-54.92
2022/05/31 04:50:39+0000,-30.79,-42.59,-32.80,-49.38,-53.52,-55.13
2022/05/31 04:51:38+0000,-31.19,-43.82,-32.53,-48.25,-52.96,-54.70
2022/05/31 04:52:30+0000,-29.80,-44.24,-32.58,-48.86,-52.77,-55.24
2022/05/31 04:53:22+0000,-29.73,-44.36,-33.30,-50.72,-53.14,-54.56
2022/05/31 04:54:14+0000,-31.70,-44.03,-32.38,-47.18,-52.81,-54.49
2022/05/31 04:55:06+0000,-31.16,-42.56,-32.43,-51.77,-53.29,-54.64